Vertical_Velocity
1 -2 2 -0 -3 -4 1 10 -2 2 -2 0 1 0 -1 1 -1 1 -0 2 2 1
2 -2 5 -2 -1 11 6 4 -3 -6 -0 1 0 -0 -1 3 5 4 1 2 0 3
-1 -6 -1 2 0 -2 18 6 12 1 -3 -7 3 0 1 4 3 3 2 2 2 3
-3 -1 2 -1 -0 5 14 28 11 17 3 -1 2 1 1 3 -1 2 -0 2 1 2
-2 1 10 3 -2 4 2 8 6 17 10 6 2 1 1 1 2 0 2 1 -1 2
1 5 2 5 7 4 10 7 15 4 -1 4 4 -5 -4 -3 3 3 1 2 3 -3
1 1 9 11 1 11 1 8 5 0 -1 5 3 2 -1 2 7 10 6 3 0 -1
1 -5 1 -6 -3 10 11 12 6 15 12 4 -3 15 3 11 1 -3 -0 -6 -3 -5
2 1 -4 -2 -12 -12 1 10 4 14 24 3 14 -5 5 19 -1 13 2 6 12 10
2 3 -0 -3 -2 -5 -12 -3 -1 -1 3 5 2 14 6 9 9 4 6 -0 10 2
2 3 1 1 -3 -1 -1 -2 -5 -4 -4 -9 -9 -7 1 1 6 -0 -1 -0 -1 -2
2 1 1 4 4 -4 1 -2 -2 -2 -2 -0 1 -2 -7 -2 -2 -5 -5 -2 -4 -3
2 -0 -1 1 4 8 2 -3 -3 3 7 6 -1 2 -4 -1 -3 1 -2 -1 -6 0
-1 0 1 0 1 2 6 7 6 5 0 -5 3 5 1 -1 1 4 3 0 -0 -3
Height
5700 5701 5705 5707 5709 5711 5714 5720 5725 5734 5743 5752 5758 5764 5769 5775 5778 5782 5786 5790 5794 5797
5688 5690 5694 5697 5698 5701 5701 5709 5716 5721 5730 5738 5746 5752 5759 5764 5769 5772 5777 5781 5784 5787
5677 5679 5681 5684 5686 5689 5694 5700 5706 5710 5717 5726 5735 5741 5748 5754 5759 5763 5767 5772 5774 5778
5669 5671 5672 5673 5674 5678 5685 5690 5695 5699 5705 5713 5723 5730 5737 5743 5748 5753 5756 5760 5763 5766
5661 5662 5665 5664 5666 5668 5672 5678 5684 5690 5697 5703 5709 5718 5725 5731 5735 5740 5744 5748 5749 5752
5653 5655 5654 5656 5660 5662 5665 5670 5675 5679 5685 5691 5696 5701 5708 5714 5720 5725 5729 5733 5735 5738
5642 5645 5646 5648 5649 5655 5658 5663 5668 5671 5674 5680 5684 5687 5693 5698 5704 5711 5715 5719 5722 5724
5630 5635 5637 5638 5642 5647 5651 5656 5659 5663 5666 5671 5675 5681 5681 5686 5689 5695 5701 5704 5708 5711
5622 5625 5629 5631 5632 5636 5642 5645 5650 5656 5660 5662 5666 5668 5672 5678 5682 5687 5689 5694 5695 5699
5614 5616 5619 5623 5626 5628 5631 5634 5640 5643 5647 5651 5655 5660 5666 5668 5671 5673 5676 5678 5683 5685
5606 5609 5611 5613 5618 5622 5625 5627 5630 5635 5637 5640 5644 5649 5654 5658 5660 5662 5664 5665 5668 5671
5598 5601 5603 5606 5607 5611 5615 5620 5623 5626 5629 5632 5634 5637 5642 5646 5649 5652 5655 5658 5660 5661
5588 5592 5595 5598 5600 5602 5606 5611 5614 5616 5618 5622 5625 5628 5631 5634 5637 5641 5644 5647 5650 5649
5578 5582 5586 5589 5592 5594 5597 5600 5604 5608 5612 5615 5616 5618 5621 5624 5626 5629 5632 5633 5636 5637